Waarnemingen

Advertentie
Mijn weer
Nancy/Essey, Frankrijk (7180): temperatuur & dauwpunt: 18.02.2017 16:00:00 - 24.02.2017 16:00:00 (CET)Nancy/Essey, Frankrijk (7180): temperatuur 5cm: 18.02.2017 16:00:00 - 24.02.2017 16:00:00 (CET)Nancy/Essey, Frankrijk (7180): temperatuur -20cm & temperatuur -100cm: 18.02.2017 16:00:00 - 24.02.2017 16:00:00 (CET)Nancy/Essey, Frankrijk (7180): windsnelheid & windstoten: 18.02.2017 16:00:00 - 24.02.2017 16:00:00 (CET)Nancy/Essey, Frankrijk (7180): windrichting: 18.02.2017 16:00:00 - 24.02.2017 16:00:00 (CET)Nancy/Essey, Frankrijk (7180): luchtdruk: 18.02.2017 16:00:00 - 24.02.2017 16:00:00 (CET)Nancy/Essey, Frankrijk (7180): zicht: 18.02.2017 16:00:00 - 24.02.2017 16:00:00 (CET)Nancy/Essey, Frankrijk (7180): Zonneschijnduur: 18.02.2017 16:00:00 - 24.02.2017 16:00:00 (CET)Nancy/Essey, Frankrijk (7180): neerslag: 18.02.2017 16:00:00 - 24.02.2017 16:00:00 (CET)
Datum & Tijd tt [°C] td [°C] tt 5cm [°C] tt -20cm [°C] tt -100cm [°C] ff [km/u] ff [kn] fx [km/u] fx [kn] dd ppp [hPa] vv [km] sd [min] rr [mm]
24.02.2017 16:00:00 8,2 1,3 7,7 6,7 6,3 19 11 35 19 WNW 1016,0 60 32 0,0
24.02.2017 15:00:00 7,5 2,0 8,1 6,7 6,3 14 8 24 13 WNW 1015,5 60 16 0,0
24.02.2017 14:00:00 7,1 1,6 9,0 6,6 6,3 14 8 23 13 W 1015,6 60 21 0,0
24.02.2017 13:00:00 6,2 3,5 3,9 6,7 6,3 10 6 28 15 W 1015,8 60 23 0,4
24.02.2017 12:00:00 6,0 3,0 4,5 6,7 6,2 11 6 25 14 W 1015,9 20 0 0,2
24.02.2017 11:00:00 6,1 2,7 5,9 6,7 6,2 16 9 32 17 NW 1015,7 57 14 0,0
24.02.2017 10:00:00 4,4 2,4 3,8 6,7 6,2 8 4 28 15 WZW 1015,3 60 0 0,0
24.02.2017 09:00:00 3,3 2,0 2,6 6,8 6,2 3 2 30 16 N 1014,8 60 0 0,6
24.02.2017 08:00:00 3,9 2,4 2,5 6,8 6,2 7 4 29 16 W 1014,0 13 0 0,4
24.02.2017 07:00:00 3,1 1,8 2,3 6,9 6,2 20 11 39 21 WNW 1013,3 4,6 0 0,6
24.02.2017 06:00:00 5,6 1,9 4,6 6,9 6,2 14 8 37 20 WZW 1012,1 48 0 0,0
24.02.2017 05:00:00 5,6 1,9 4,2 7,0 6,2 16 8 31 17 W 1011,5 46 0 0,0
24.02.2017 04:00:00 6,1 1,8 4,6 7,0 6,2 15 8 33 18 WZW 1010,9 50 0 0,0
24.02.2017 03:00:00 6,6 1,7 5,6 7,0 6,2 20 11 37 20 WZW 1010,4 54 0 0,0
24.02.2017 02:00:00 6,9 2,2 6,2 7,1 6,2 18 10 45 25 ZW 1009,9 51 0 0,0
24.02.2017 01:00:00 7,5 1,6 6,6 7,1 6,2 19 11 48 26 W 1009,1 57 0 0,0
24.02.2017 00:00:00 7,9 3,2 6,7 7,1 6,2 25 14 54 29 WZW 1007,5 53 0 0,0
23.02.2017 23:00:00 8,2 3,6 7,3 7,1 6,1 25 14 48 26 WZW 1006,6 59 0 0,0
23.02.2017 22:00:00 8,6 4,4 7,4 7,1 6,2 28 15 55 30 WZW 1005,9 60 0 0,0
23.02.2017 21:00:00 8,7 5,3 6,1 7,1 6,1 24 13 54 29 WZW 1005,3 60 0 0,0
23.02.2017 20:00:00 8,1 3,9 6,1 7,1 6,1 29 16 63 34 WZW 1004,9 19 0 0,8
23.02.2017 19:00:00 9,4 5,8 8,4 7,1 6,1 33 18 69 37 ZW 1004,0 20 0 0,0
23.02.2017 18:00:00 9,7 5,3 8,8 7,0 6,1 36 19 66 36 ZW 1003,8 55 0 0,0
23.02.2017 17:00:00 9,9 5,7 9,0 6,9 6,1 25 14 57 31 ZW 1003,7 19 0 0,0
23.02.2017 16:00:00 11,3 4,3 11,1 6,9 6,1 28 15 62 34 ZW 1003,2 59 0 0,0
23.02.2017 15:00:00 11,9 4,1 12,3 6,8 6,1 39 21 72 39 WZW 1003,6 36 36 0,0
23.02.2017 14:00:00 12,8 3,7 13,6 6,7 6,1 32 17 68 37 WZW 1003,8 34 23 0,0
23.02.2017 13:00:00 12,8 4,0 11,8 6,7 6,1 24 13 47 25 ZW 1004,7 60 37 0,0
23.02.2017 12:00:00 10,4 4,5 10,9 6,7 6,1 29 16 56 30 ZW 1005,8 42 41 0,0
23.02.2017 11:00:00 8,9 4,5 8,8 6,7 6,1 24 13 41 22 ZZW 1007,5 40 0 0,0
23.02.2017 10:00:00 8,1 4,3 7,7 6,7 6,0 13 7 32 17 ZZW 1008,4 36 0 0,0
23.02.2017 09:00:00 7,7 3,9 7,4 6,8 6,0 15 8 41 22 ZZW 1009,5 34 0 0,0
23.02.2017 08:00:00 7,7 4,1 7,3 6,8 6,0 16 9 35 19 ZZW 1009,9 29 0 0,0
23.02.2017 07:00:00 8,1 4,1 7,6 6,8 6,0 16 9 36 19 ZZW 1010,7 30 0 0,0
23.02.2017 06:00:00 8,6 4,4 8,0 6,8 6,0 13 7 32 18 ZW 1011,6 34 0 0,0
23.02.2017 05:00:00 8,8 4,4 8,2 6,8 6,0 20 11 35 19 ZZW 1012,3 36 0 0,0
23.02.2017 04:00:00 8,9 4,7 8,3 6,8 6,0 17 9 39 21 ZW 1013,0 36 0 0,0
23.02.2017 03:00:00 8,7 5,4 8,2 6,8 6,0 20 11 38 21 ZW 1013,8 28 0 0,0
23.02.2017 02:00:00 8,8 5,7 8,4 6,8 6,0 20 11 44 24 ZW 1014,5 30 0 0,0
23.02.2017 01:00:00 9,2 5,6 8,7 6,8 6,0 17 9 44 24 WZW 1015,0 34 0 0,0
23.02.2017 00:00:00 9,3 5,5 8,7 6,8 6,0 21 12 42 23 ZW 1015,0 31 0 0,0
22.02.2017 23:00:00 9,2 5,6 8,7 6,9 6,0 21 12 48 26 ZW 1015,5 28 0 0,0
22.02.2017 22:00:00 9,1 5,6 8,6 6,8 5,9 21 12 46 25 ZW 1015,8 31 0 0,0
22.02.2017 21:00:00 9,0 5,9 8,4 6,8 6,0 24 13 46 25 ZW 1015,9 35 0 0,0
22.02.2017 20:00:00 8,8 6,2 7,8 6,8 6,0 20 11 51 28 ZW 1016,3 34 0 0,0
22.02.2017 19:00:00 9,1 6,0 8,7 6,8 5,9 25 13 50 27 ZW 1016,3 51 0 0,0
22.02.2017 18:00:00 9,2 5,9 8,9 6,8 5,9 26 14 48 26 ZW 1016,0 60 1 0,0
22.02.2017 17:00:00 9,6 6,1 9,4 6,7 5,9 24 13 52 28 ZW 1015,7 54 0 0,0
22.02.2017 16:00:00 9,9 6,2 9,8 6,7 5,9 22 12 51 27 ZW 1016,3 60 0 0,0
22.02.2017 15:00:00 10,2 6,2 10,2 6,7 5,9 23 12 55 30 WZW 1016,4 60 0 0,0
22.02.2017 14:00:00 10,5 6,4 10,7 6,6 5,9 27 15 51 27 ZW 1016,6 50 2 0,0
22.02.2017 13:00:00 10,1 6,2 9,9 6,6 5,9 23 12 51 28 ZW 1017,0 47 0 0,0
22.02.2017 12:00:00 9,7 6,6 9,2 6,6 5,9 22 12 45 24 ZW 1017,8 33 0 0,0
22.02.2017 11:00:00 9,4 6,7 9,2 6,6 5,9 20 11 41 22 ZW 1017,9 20 0 0,0
22.02.2017 10:00:00 9,5 6,6 8,5 6,6 5,9 18 10 41 22 ZW 1017,8 19 0 0,0
22.02.2017 09:00:00 9,5 6,8 9,0 6,6 5,9 21 12 34 18 ZW 1017,7 48 0 0,0
22.02.2017 08:00:00 9,6 6,7 8,2 6,6 5,9 15 8 49 26 ZW 1017,3 60 0 0,0
22.02.2017 07:00:00 9,7 7,3 8,4 6,6 5,9 17 9 43 23 ZW 1017,1 60 0 0,0
22.02.2017 06:00:00 9,9 7,5 9,0 6,6 5,9 19 10 36 19 ZW 1017,2 17 0 0,0
22.02.2017 05:00:00 10,0 8,3 8,9 6,6 5,8 18 10 32 17 ZW 1017,5 17 0 0,2
22.02.2017 04:00:00 9,9 8,5 9,1 6,6 5,8 15 8 37 20 ZW 1017,8 8 0 0,0
22.02.2017 03:00:00 10,1 8,7 9,3 6,5 5,8 18 10 34 19 WZW 1018,2 10 0 0,0
22.02.2017 02:00:00 10,6 8,5 10,1 6,5 5,8 17 9 37 20 WZW 1018,7 52 0 0,0
22.02.2017 01:00:00 10,6 8,7 10,1 6,5 5,8 14 8 32 18 WZW 1019,1 47 0 0,0
22.02.2017 00:00:00 10,8 8,7 10,3 6,5 5,8 16 9 42 23 WZW 1019,4 35 0 0,0
21.02.2017 23:00:00 10,7 8,8 10,1 6,4 5,8 15 8 31 17 WZW 1019,5 52 0 0,0
21.02.2017 22:00:00 10,6 8,7 10,0 6,5 5,8 13 7 28 15 WZW 1019,6 60 0 0,0
21.02.2017 21:00:00 10,5 8,6 9,5 6,4 5,8 13 7 29 16 WZW 1019,9 60 0 0,0
21.02.2017 20:00:00 10,2 8,3 9,4 6,4 5,8 11 6 29 16 WZW 1020,0 60 0 0,0
21.02.2017 19:00:00 10,5 8,4 9,7 6,3 5,8 13 7 33 18 WZW 1020,4 60 0 0,0
21.02.2017 18:00:00 10,5 8,4 10,1 6,1 5,8 16 8 35 19 WZW 1020,4 55 0 0,0
21.02.2017 17:00:00 11,0 8,7 10,8 6,1 5,8 19 10 41 22 WZW 1019,9 60 0 0,0
21.02.2017 16:00:00 11,5 9,2 11,2 6,0 5,8 14 8 36 19 W 1019,7 57 1 0,0
21.02.2017 15:00:00 11,7 9,6 10,7 5,9 5,8 16 8 32 17 WZW 1019,8 56 0 0,2
21.02.2017 14:00:00 11,3 9,9 10,6 5,9 5,8 17 9 39 21 WZW 1019,8 9 0 0,2
21.02.2017 13:00:00 12,0 9,0 11,6 5,8 5,8 16 9 41 22 WZW 1020,0 60 0 0,0
21.02.2017 12:00:00 11,7 9,4 11,5 5,7 5,8 18 10 33 18 W 1020,2 13 0 0,0
21.02.2017 11:00:00 11,3 9,2 11,2 5,7 5,8 16 8 37 20 WZW 1020,3 58 0 0,0
21.02.2017 10:00:00 11,2 9,3 10,7 5,7 5,8 17 9 35 19 W 1020,1 54 0 0,0
21.02.2017 09:00:00 10,7 9,1 10,0 5,6 5,8 16 9 36 19 WZW 1020,0 20 0 0,0
21.02.2017 08:00:00 10,5 9,1 9,3 5,6 5,8 14 7 30 16 ZW 1019,5 60 0 0,2
21.02.2017 07:00:00 9,9 9,1 9,2 5,6 5,8 15 8 31 17 ZW 1019,1 4,9 0 0,4
21.02.2017 06:00:00 10,0 8,8 8,8 5,6 5,8 18 10 33 18 ZW 1019,3 20 0 0,0
21.02.2017 05:00:00 9,5 8,7 8,7 5,5 5,7 12 7 23 12 ZZW 1019,3 17 0 0,0
21.02.2017 04:00:00 9,3 8,7 8,6 5,5 5,7 14 7 33 18 ZZW 1020,0 6 0 0,2
21.02.2017 03:00:00 9,3 8,4 8,5 5,5 5,7 13 7 34 18 ZW 1020,6 19 0 0,6
21.02.2017 02:00:00 9,2 8,3 8,5 5,5 5,7 16 9 37 20 WZW 1020,8 13 0 0,0
21.02.2017 01:00:00 9,1 7,9 8,5 5,5 5,7 11 6 33 18 ZW 1021,4 33 0 0,0
21.02.2017 00:00:00 9,0 7,4 7,9 5,4 5,7 10 6 27 15 ZW 1021,5 49 0 0,0
20.02.2017 23:00:00 8,6 7,4 7,8 5,4 5,7 13 7 30 16 ZZW 1021,9 17 0 0,0
20.02.2017 22:00:00 8,5 7,6 7,8 5,4 5,7 13 7 32 17 ZW 1022,2 3,0 0 0,0
20.02.2017 21:00:00 8,9 6,9 8,1 5,4 5,7 13 7 35 19 ZW 1022,2 14 0 0,0
20.02.2017 20:00:00 9,3 6,2 8,6 5,3 5,7 17 9 33 18 ZW 1022,1 11 0 0,0
20.02.2017 19:00:00 9,8 5,6 9,2 5,3 5,7 16 9 34 18 ZW 1022,0 16 0 0,0
20.02.2017 18:00:00 9,7 5,9 8,9 5,2 5,7 16 9 47 25 ZW 1021,7 12 0 0,0
20.02.2017 17:00:00 9,7 6,4 8,8 5,1 5,7 16 9 30 16 ZW 1021,6 8 0 0,0
20.02.2017 16:00:00 10,1 5,7 10,1 5,1 5,7 16 9 34 18 ZZW 1021,8 18 0 0,0
20.02.2017 15:00:00 10,2 5,4 10,3 5,0 5,7 16 8 38 20 ZW 1022,4 19 0 0,0
20.02.2017 14:00:00 10,3 5,3 9,7 5,0 5,7 19 10 32 17 ZW 1022,7 20 0 0,0
20.02.2017 13:00:00 9,2 5,0 9,3 5,0 5,7 18 10 38 20 ZW 1023,6 18 0 0,0
20.02.2017 12:00:00 9,6 5,0 9,3 4,9 5,7 22 12 39 21 ZW 1024,3 19 0 0,0
20.02.2017 11:00:00 8,5 4,9 8,3 4,9 5,7 14 8 24 13 ZZW 1024,8 15 0 0,0
20.02.2017 10:00:00 7,8 4,7 7,5 4,9 5,7 9 5 21 11 Z 1024,9 12 0 0,0
20.02.2017 09:00:00 7,1 4,7 5,9 4,9 5,7 8 4 17 9 Z 1024,6 10 0 0,0
20.02.2017 08:00:00 6,2 4,4 5,7 4,9 5,7 11 6 16 9 ZZO 1024,6 10 0 0,0
20.02.2017 07:00:00 6,2 4,4 5,5 4,9 5,7 8 4 12 6 ZZO 1024,6 11 0 0,0
20.02.2017 06:00:00 6,7 4,4 6,0 4,9 5,7 7 4 18 10 ZW 1024,5 13 0 0,0
20.02.2017 05:00:00 6,6 4,3 5,7 4,9 5,7 2 1 15 8 N 1024,7 11 0 0,0
20.02.2017 04:00:00 6,9 4,9 6,1 4,9 5,7 7 4 16 9 W 1024,6 9 0 0,0
20.02.2017 03:00:00 7,0 4,3 6,4 4,9 5,6 6 3 19 11 W 1025,1 12 0 0,0
20.02.2017 02:00:00 7,1 3,9 6,3 4,9 5,7 6 4 16 8 WZW 1025,4 12 0 0,0
20.02.2017 01:00:00 7,4 3,4 6,2 4,9 5,6 7 4 18 10 W 1025,6 14 0 0,0
20.02.2017 00:00:00 7,3 2,8 6,4 4,9 5,6 5 3 18 10 WNW 1025,4 16 0 0,0
19.02.2017 23:00:00 7,7 2,4 6,9 4,9 5,7 6 4 23 12 WNW 1025,4 20 0 0,0
19.02.2017 22:00:00 7,5 1,8 5,7 4,9 5,7 11 6 22 12 WZW 1025,2 25 0 0,0
19.02.2017 21:00:00 7,4 2,7 5,6 4,8 5,6 9 5 24 13 W 1024,9 17 0 0,0
19.02.2017 20:00:00 8,6 2,6 7,4 4,8 5,6 9 5 22 12 W 1024,8 21 0 0,0
19.02.2017 19:00:00 9,0 1,9 7,2 4,7 5,6 11 6 22 12 W 1024,3 31 0 0,0
19.02.2017 18:00:00 9,7 1,1 8,1 4,6 5,6 14 7 27 15 W 1023,8 38 44 0,0
19.02.2017 17:00:00 11,2 1,4 12,1 4,5 5,6 11 6 32 17 W 1023,4 38 60 0,0
19.02.2017 16:00:00 11,5 1,1 13,5 4,4 5,6 19 10 30 16 WZW 1023,3 34 60 0,0
19.02.2017 15:00:00 11,5 2,0 13,5 4,3 5,6 13 7 29 16 WZW 1023,8 19 60 0,0
19.02.2017 14:00:00 10,9 1,4 13,5 4,2 5,6 13 7 31 17 WZW 1024,2 20 60 0,0
19.02.2017 13:00:00 10,3 2,6 14,1 4,3 5,6 3 2 12 6 WZW 1025,3 16 60 0,0
19.02.2017 12:00:00 7,9 2,6 12,0 4,3 5,6 6 4 12 7 ZZO 1025,9 12 60 0,0
19.02.2017 11:00:00 5,0 1,3 7,1 4,4 5,6 3 2 10 5 ZZO 1026,5 9 60 0,0
19.02.2017 10:00:00 2,0 -0,6 2,2 4,5 5,6 3 2 8 4 ZZO 1027,3 5 60 0,0
19.02.2017 09:00:00 -1,3 -1,4 -5,9 4,6 5,6 3 1 4 2 NO 1027,5 3,3 52 0,0
19.02.2017 08:00:00 -4,0 -4,4 -7,8 4,7 5,6 1 1 9 5 ZZO 1027,1 1,5 0 0,0
19.02.2017 07:00:00 -3,9 -4,2 -7,8 4,8 5,5 3 2 8 4 N 1026,6 0,6 0 0,0
19.02.2017 06:00:00 -3,8 -4,3 -7,4 4,9 5,6 6 3 10 5 OZO 1026,6 3,4 0 0,0
19.02.2017 05:00:00 -3,1 -3,6 -6,7 5,0 5,6 2 1 6 3 ZO 1026,7 2,8 0 0,0
19.02.2017 04:00:00 -2,6 -3,0 -7,2 5,1 5,6 3 2 5 3 ZO 1026,8 5 0 0,0
19.02.2017 03:00:00 -2,2 -2,6 -6,3 5,2 5,6 1 1 4 2 N 1027,1 8 0 0,0
19.02.2017 02:00:00 -1,6 -2,2 -5,5 5,3 5,6 3 1 4 2 OZO 1027,1 5 0 0,0
19.02.2017 01:00:00 -1,2 -1,9 -5,2 5,3 5,5 2 1 4 2 ZZO 1027,1 7 0 0,0
19.02.2017 00:00:00 -0,3 -1,1 -3,7 5,4 5,5 4 2 5 3 ONO 1026,9 10 0 0,0
18.02.2017 23:00:00 1,4 -0,1 -2,3 5,5 5,6 3 2 8 5 ONO 1026,7 10 0 0,0
18.02.2017 22:00:00 1,8 0,0 -1,3 5,5 5,6 4 2 17 9 ONO 1026,9 12 0 0,0
18.02.2017 21:00:00 2,3 0,0 -1,4 5,5 5,5 13 7 16 8 NO 1026,7 16 0 0,0
18.02.2017 20:00:00 2,6 0,5 -1,2 5,5 5,5 8 5 14 8 NNO 1026,7 16 0 0,0
18.02.2017 19:00:00 4,1 1,0 0,3 5,5 5,5 10 6 16 9 NO 1026,5 18 0 0,0
18.02.2017 18:00:00 6,1 1,2 2,6 5,3 5,5 12 6 23 12 NO 1026,2 27 35 0,0
18.02.2017 17:00:00 9,1 2,2 10,1 5,2 5,5 16 9 26 14 NO 1025,8 35 60 0,0
18.02.2017 16:00:00 10,1 2,2 10,3 5,1 5,5 14 8 27 15 NO 1025,7 20 60 0,0

tt = temperatuur
td = dauwpunt
tt 5cm = temperatuur 5cm
tt -20cm = temperatuur -20cm
tt -100cm = temperatuur -100cm
ff = windsnelheid
fx = windstoten
dd = windrichting
ppp = luchtdruk
vv = zicht
sd = Zonneschijnduur
rr = neerslag

Weerstations in de omgeving